{"data":{"norad_id":67466,"epoch":"2026-05-24T23:10:34.389984Z","epoch_age_seconds":71782,"freshness":"FRESH","line1":"1 67466U 26008X   26144.96567581  .00015145  00000+0  55852-3 0  9992","line2":"2 67466  43.0030 134.8062 0001362 289.0278  71.0426 15.27594625 21237","mean_motion":15.27594625,"eccentricity":0.0001362,"inclination_deg":43.003,"raan_deg":134.8062,"arg_perigee_deg":289.0278,"mean_anomaly_deg":71.0426,"bstar":0.00055852,"rev_number":2123,"period_min":94.265846215582,"perigee_km":482.07081629594,"apogee_km":483.93979145951,"semimajor_km":6861.1423038777,"source":"CELESTRAK","updated_at":"2026-05-25T13:38:21.563918Z"}}